Home   Weather   Ede   Past weeks

Flag for Netherlands Past Weather in Ede, Netherlands — Yesterday and Last 2 Weeks

Now
32 °F

Passing clouds.


Feels Like: 26 °F
Forecast: 17 / 28 °F
Wind: 6 mph from East

Location: Deelen

Current Time: Jan 21, 2017 at 5:38:08 am

Latest Report: Jan 21, 2017 at 4:55 am


Visibility: N/A

Pressure: 30.48 "Hg

Humidity: 93%

Dew Point: 30 °F

Location of EdeLocation

Past Weather in Ede — Graph

°F

Ede Temperature Yesterday

Maximum temperature yesterday: 39 °F (at 2:25 pm)
Minimum temperature yesterday: 19 °F (at 6:55 am)
Average temperature yesterday: 30 °F

High & Low Weather Summary for the Past Weeks

 TemperatureHumidityPressure
High48 °F (Jan 11, 12:55 pm)100% (Jan 7, 6:25 am)30.72 "Hg (Jan 7, 6:25 am)
Low19 °F (Jan 6, 7:55 am)41% (Jan 20, 11:55 am)29.00 "Hg (Jan 13, 12:55 am)
Average32 °F90%30.20 "Hg
* Reported Jan 6 4:25 am — Jan 21 4:25 am, Ede, Weather by CustomWeather, © 2017

Note: Actual official high and low records may vary slightly from our data, if they occured in-between our weather recording intervals... More about our weather records

Advertising

Ede Weather History for the Previous 24 Hours

Scroll right to see more
 ConditionsComfort  
Time TempWeatherWind HumidityBarometerVisibility
4:25 am
Sat, Jan 21
34 °FFog.6 mph87%30.48 "Hg6 mi
3:55 am32 °FIce fog.5 mph93%30.48 "Hg6 mi
3:25 am34 °FPassing clouds.5 mph87%30.48 "HgN/A
2:55 am34 °FFog.5 mph87%30.48 "Hg6 mi
2:25 am34 °FFog.3 mph87%30.48 "Hg5 mi
1:55 am34 °FFog.5 mph87%30.48 "Hg6 mi
1:25 am34 °FPassing clouds.3 mph87%30.51 "HgN/A
12:55 am34 °FPassing clouds.3 mph81%30.51 "HgN/A
12:25 am34 °FPassing clouds.6 mph81%30.51 "HgN/A
11:55 pm
Fri, Jan 20
34 °FPassing clouds.7 mph81%30.51 "HgN/A
11:25 pm34 °FPassing clouds.7 mph81%30.51 "HgN/A
10:55 pm34 °FPassing clouds.8 mph75%30.51 "HgN/A
10:25 pm34 °FPassing clouds.9 mph75%30.51 "HgN/A
9:55 pm34 °FPassing clouds.9 mph81%30.51 "HgN/A
9:25 pm34 °FChilly.8 mph81%30.54 "HgN/A
8:55 pm34 °FPassing clouds.7 mph75%30.54 "HgN/A
8:25 pm34 °FPassing clouds.6 mph51%30.54 "HgN/A
7:55 pm32 °FPassing clouds.7 mph60%30.54 "HgN/A
7:25 pm34 °FPassing clouds.5 mph56%30.54 "HgN/A
6:55 pm34 °FPassing clouds.3 mph51%30.54 "HgN/A
6:25 pm34 °FPassing clouds.5 mph56%30.54 "HgN/A
5:55 pm34 °FPassing clouds.5 mph56%30.54 "HgN/A
5:25 pm34 °FChilly.3 mph60%30.54 "HgN/A
4:55 pm36 °FPassing clouds.3 mph60%30.54 "HgN/A
4:25 pm37 °FPassing clouds.5 mph56%30.54 "HgN/A
3:55 pm39 °FPassing clouds.3 mph48%30.54 "HgN/A
3:25 pm39 °FChilly.6 mph48%30.54 "HgN/A
2:55 pm39 °FPassing clouds.5 mph45%30.54 "HgN/A
2:25 pm39 °FPassing clouds.3 mph45%30.54 "HgN/A
1:55 pm37 °FPassing clouds.2 mph45%30.54 "HgN/A
1:25 pm37 °FPassing clouds.5 mph45%30.57 "HgN/A
12:55 pm37 °FPartly sunny.6 mph41%30.57 "HgN/A
12:25 pm37 °FPassing clouds.7 mph41%30.57 "HgN/A
11:55 am36 °FPassing clouds.2 mph41%30.57 "HgN/A
11:25 am34 °FPassing clouds.3 mph44%30.57 "HgN/A
10:55 am34 °FPassing clouds.2 mph48%30.60 "HgN/A
10:25 am28 °FPassing clouds.2 mph64%30.57 "HgN/A
9:55 am23 °FPassing clouds.1 mph86%30.57 "HgN/A
9:25 am21 °FIce fog.1 mph93%30.57 "Hg6 mi
8:55 am21 °FIce fog.1 mph93%30.57 "Hg4 mi
8:25 am21 °FIce fog.1 mph86%30.57 "Hg4 mi
7:55 am21 °FIce fog.1 mph86%30.57 "Hg4 mi
7:25 am21 °FIce fog.2 mph86%30.57 "Hg4 mi
6:55 am19 °FIce fog.1 mph93%30.57 "Hg5 mi
6:25 am21 °FIce fog.1 mph86%30.57 "Hg5 mi
5:55 am21 °FIce fog.1 mph86%30.57 "Hg4 mi
5:25 am21 °FIce fog.1 mph93%30.60 "Hg2 mi
Weather by CustomWeather, © 2017

See weather overviewHow to use our weather pages